[[[{"header":{"parameterUnit":"kt","parameterCategory":2,"dx":1,"dy":1,"la1":30.253999710083008,"la2":30.299108505249023,"lo1":-89.0895004272461,"lo2":-89.04439544677734,"nx":28,"ny":28,"refTime":"2022-09-30T21:00:00:Z","depth":0,"parameterNumber":1,"parameterNumberName":"U-component_of_WINDS"},"data":[0.4859,0.4879,0.4898,0.4931,0.4954,0.4979,0.4995,0.5017,0.504,0.5074,0.5097,0.5119,0.5149,0.5182,0.5209,0.5218,0.5228,0.5222,0.5234,0.5244,0.5246,0.5249,0.5245,0.5224,0.5224,0.5221,0.5221,0.5221,0.4866,0.4889,0.4911,0.4946,0.4965,0.4983,0.5012,0.5028,0.5051,0.5079,0.5102,0.5134,0.5161,0.5195,0.5225,0.5236,0.5246,0.5243,0.5242,0.5247,0.5258,0.5254,0.5235,0.5235,0.5235,0.5235,0.5235,0.5235,0.4885,0.4896,0.4927,0.4952,0.4975,0.4998,0.5013,0.5039,0.5061,0.5094,0.5113,0.5139,0.5171,0.5217,0.5237,0.5259,0.5266,0.5268,0.5269,0.5269,0.5267,0.5269,0.5265,0.5265,0.5265,0.5265,0.5265,0,0.4904,0.4918,0.4941,0.4969,0.4988,0.5012,0.5037,0.5047,0.5085,0.5103,0.5129,0.5148,0.5185,0.5213,0.5246,0.5266,0.5286,0.529,0.5292,0.5283,0.5272,0.5278,0.5296,0.529,0.529,0.5291,0.5291,0.5291,0.4923,0.4934,0.4976,0.4989,0.5007,0.5029,0.5045,0.5078,0.5094,0.5131,0.514,0.5168,0.5192,0.5232,0.5263,0.5291,0.5301,0.5297,0.5305,0.5297,0.5301,0.53,0.5302,0.5294,0.5294,0.5293,0.5293,0,0.4933,0.4963,0.4986,0.5026,0.5037,0.5047,0.5082,0.5095,0.5119,0.514,0.5147,0.5184,0.521,0.5242,0.5278,0.5294,0.5312,0.5321,0.5302,0.5305,0.5305,0.5304,0.5298,0.5299,0.5321,0.5321,0.532,0,0.4961,0.4974,0.5018,0.503,0.5046,0.5078,0.5093,0.5115,0.5142,0.5159,0.5187,0.5203,0.524,0.5261,0.5284,0.5305,0.5312,0.5325,0.5331,0.5323,0.5321,0.5332,0.5332,0.5344,0.5344,0.5344,0.5344,0,0.4972,0.5011,0.503,0.5044,0.5088,0.5096,0.5115,0.5146,0.5162,0.5187,0.5198,0.5226,0.5241,0.5263,0.5292,0.5297,0.5319,0.5331,0.5332,0.5332,0.5335,0.5334,0.5321,0.5344,0.5344,0.5344,0.5344,0,0.4999,0.5024,0.5047,0.5084,0.5093,0.5106,0.5135,0.5153,0.5183,0.5198,0.5219,0.5241,0.5261,0.5271,0.53,0.5298,0.5312,0.5326,0.5327,0.533,0.5341,0.5329,0.5313,0.5313,0.5334,0.5334,0.5334,0,0.5004,0.5035,0.5062,0.5083,0.5102,0.5131,0.5146,0.5172,0.5193,0.5213,0.5237,0.5258,0.5273,0.5284,0.5294,0.532,0.5323,0.532,0.5349,0.535,0.534,0.5326,0.5315,0.5313,0.5334,0.5334,0.5334,0,0.5011,0.5063,0.5065,0.5082,0.512,0.5136,0.5153,0.5181,0.5193,0.5218,0.5233,0.5265,0.5277,0.5295,0.5315,0.5324,0.5322,0.5336,0.5337,0.5333,0.5336,0.5326,0.5325,0.5334,0.5334,0.5334,0.5333,0,0.5046,0.5064,0.507,0.5106,0.5123,0.5137,0.5169,0.5183,0.5201,0.5223,0.5246,0.5275,0.5304,0.5311,0.5329,0.5339,0.5342,0.5354,0.5366,0.5356,0.5357,0.5357,0.5362,0.5363,0.5363,0.5364,0,0,0.5042,0.507,0.5099,0.5116,0.5131,0.5161,0.5174,0.5193,0.523,0.5241,0.5248,0.5296,0.5319,0.5343,0.5343,0.5355,0.536,0.5361,0.5361,0.536,0.536,0.536,0.536,0.5365,0.5365,0.5365,0.5365,0,0.5061,0.5083,0.5095,0.5116,0.5147,0.517,0.5172,0.5209,0.5224,0.5246,0.527,0.5288,0.5325,0.5346,0.5362,0.5359,0.5376,0.5366,0.5354,0.5364,0.5363,0.5362,0.5362,0.5361,0.5366,0.5366,0.5366,0,0.5074,0.51,0.5109,0.5146,0.5167,0.5185,0.5205,0.5223,0.5237,0.5268,0.529,0.531,0.5341,0.536,0.5369,0.5376,0.539,0.5391,0.5389,0.5391,0.5402,0.5401,0.54,0.5416,0.5416,0.5416,0,0,0.5086,0.5103,0.5141,0.5152,0.5164,0.5197,0.521,0.5228,0.5255,0.5265,0.5291,0.5317,0.5339,0.5353,0.5375,0.5391,0.54,0.5396,0.5393,0.5391,0.5392,0.5403,0.5401,0.5416,0.5416,0.5416,0,0,0.5092,0.5136,0.5149,0.5165,0.519,0.5228,0.5234,0.5251,0.5274,0.5276,0.5309,0.5317,0.5335,0.5354,0.5352,0.538,0.5391,0.5392,0.5367,0.5364,0.5362,0.5357,0.5376,0,0,0,0,0,0.5127,0.5131,0.5142,0.5149,0.5195,0.5222,0.5228,0.5255,0.5263,0.5267,0.5291,0.5309,0.536,0.5359,0.5366,0.5367,0.5418,0.5417,0.5417,0.5389,0.5386,0.5383,0,0,0,0,0,0,0.513,0.5139,0.5142,0.518,0.5191,0.5222,0.5241,0.5248,0.5263,0.5266,0.5303,0.531,0.5333,0.5357,0.5363,0.5364,0.5374,0.5418,0.5417,0.5417,0.5388,0.5385,0.5383,0,0,0,0,0,0.5132,0.514,0.5206,0.518,0.519,0.5226,0.5241,0.5247,0.5259,0.5297,0.5304,0.5278,0.5333,0.534,0.5361,0.536,0.537,0.5373,0.5417,0.5417,0.5417,0.5386,0,0,0,0,0,0,0.5134,0.5146,0.5209,0.5213,0.518,0.5225,0.5233,0.5246,0.5289,0.5296,0.5273,0.5274,0.5332,0.5338,0.5343,0.5358,0.5367,0.5369,0.5371,0.5417,0.5417,0.5417,0,0,0,0,0,0,0.5142,0.5149,0.5211,0.521,0.5214,0.5224,0.5231,0.5253,0.529,0.5263,0.5266,0.5273,0.5325,0.5336,0.5341,0.5373,0.5365,0.5367,0.5368,0.5369,0.5417,0.5417,0,0,0,0,0,0,0.5146,0.5152,0.5209,0.5212,0.5215,0.5261,0.5244,0.529,0.5288,0.5261,0.5288,0.5289,0.5323,0.5328,0.5339,0.537,0.5372,0.5365,0.5366,0.5367,0.5368,0,0,0,0,0,0,0,0.5148,0.5103,0.5186,0.5214,0.5217,0.5249,0.525,0.5251,0.5288,0.5288,0.5288,0.5289,0.5353,0.5355,0.5357,0.5367,0,0,0.5364,0.5365,0,0,0,0,0,0,0,0,0.5101,0.5103,0.5186,0.5187,0.5188,0.5249,0.525,0.525,0.5288,0.5288,0.5288,0.5288,0.5353,0.5355,0.5357,0,0,0,0,0,0,0,0,0,0,0,0,0,0,0,0.5186,0.5187,0,0.5249,0.525,0.525,0.5288,0.5288,0.5288,0.5288,0.5354,0.5355,0.5357,0,0,0,0,0,0,0,0,0,0,0,0,0,0,0,0,0,0,0,0,0,0,0,0,0,0,0,0,0,0,0,0,0,0,0,0,0,0,0,0,0,0,0,0,0,0,0,0,0,0,0,0,0,0,0,0,0,0,0,0,0,0,0,0,0,0,0,0,0]}],[{"header":{"parameterUnit":"kt","parameterCategory":2,"dx":1,"dy":1,"la1":30.253999710083008,"la2":30.299108505249023,"lo1":-89.0895004272461,"lo2":-89.04439544677734,"nx":28,"ny":28,"refTime":"2022-09-30T21:00:00:Z","depth":0,"parameterNumber":2,"parameterNumberName":"V-component_of_WINDS"},"data":[-9.7878,-9.7918,-9.7918,-9.7963,-9.797,-9.8001,-9.8011,-9.8024,-9.8033,-9.8067,-9.8086,-9.8086,-9.8093,-9.8113,-9.8132,-9.8131,-9.8139,-9.8156,-9.8152,-9.8082,-9.8071,-9.8062,-9.8054,-9.8158,-9.8158,-9.8227,-9.8228,-9.8228,-9.7832,-9.7841,-9.7864,-9.7886,-9.7906,-9.7891,-9.7906,-9.7923,-9.7948,-9.7959,-9.7976,-9.8005,-9.8025,-9.8025,-9.8044,-9.8061,-9.8053,-9.8066,-9.8065,-9.8067,-9.7991,-9.7982,-9.8072,-9.8072,-9.8072,-9.8072,-9.8072,-9.8072,-9.775,-9.7773,-9.7786,-9.7811,-9.7821,-9.7834,-9.7856,-9.7857,-9.7877,-9.7898,-9.7889,-9.7917,-9.7925,-9.7944,-9.7949,-9.7969,-9.7954,-9.7966,-9.7969,-9.7973,-9.7979,-9.7885,-9.7971,-9.7971,-9.7971,-9.797,-9.797,0,-9.7689,-9.7688,-9.7708,-9.773,-9.7747,-9.7761,-9.7774,-9.7787,-9.7777,-9.7793,-9.7817,-9.7829,-9.7853,-9.7873,-9.7888,-9.7889,-9.7872,-9.7868,-9.7877,-9.7883,-9.7889,-9.7889,-9.7768,-9.7865,-9.7864,-9.7863,-9.7863,-9.7863,-9.7608,-9.7633,-9.7644,-9.7659,-9.7665,-9.7688,-9.7701,-9.769,-9.7703,-9.7715,-9.7734,-9.7754,-9.7769,-9.7803,-9.7799,-9.7815,-9.7807,-9.7845,-9.7809,-9.7815,-9.781,-9.781,-9.7813,-9.7853,-9.7854,-9.7855,-9.7856,0,-9.7563,-9.7559,-9.7597,-9.7603,-9.7606,-9.7632,-9.7636,-9.7657,-9.7653,-9.768,-9.7686,-9.7679,-9.77,-9.7689,-9.7709,-9.7703,-9.7746,-9.7736,-9.7746,-9.7744,-9.7779,-9.7777,-9.7889,-9.7904,-9.7794,-9.7795,-9.7796,0,-9.7492,-9.7524,-9.7518,-9.7539,-9.7575,-9.7563,-9.7598,-9.7599,-9.7604,-9.7625,-9.7604,-9.7624,-9.7606,-9.7624,-9.7614,-9.7647,-9.765,-9.7648,-9.7645,-9.7651,-9.7651,-9.7657,-9.7652,-9.7634,-9.7633,-9.7633,-9.7633,0,-9.7423,-9.7455,-9.749,-9.7497,-9.7504,-9.752,-9.7524,-9.7529,-9.7539,-9.7551,-9.7558,-9.7572,-9.7579,-9.759,-9.7578,-9.7554,-9.7617,-9.7581,-9.7614,-9.7615,-9.7629,-9.7628,-9.773,-9.7632,-9.7632,-9.7631,-9.7631,0,-9.7365,-9.738,-9.7431,-9.7437,-9.7445,-9.7467,-9.7481,-9.7497,-9.7503,-9.7499,-9.7507,-9.7491,-9.7517,-9.7483,-9.7519,-9.7492,-9.7501,-9.75,-9.7502,-9.7504,-9.7467,-9.7528,-9.7625,-9.7636,-9.7506,-9.7505,-9.7504,0,-9.729,-9.7338,-9.7328,-9.7374,-9.7395,-9.7372,-9.7395,-9.7401,-9.7397,-9.7413,-9.7407,-9.7424,-9.7396,-9.74,-9.7419,-9.7413,-9.7448,-9.7408,-9.7431,-9.7432,-9.7433,-9.7522,-9.754,-9.7605,-9.7491,-9.7492,-9.7493,0,-9.723,-9.7238,-9.7246,-9.7254,-9.7259,-9.7274,-9.73,-9.7315,-9.7327,-9.7333,-9.7355,-9.7376,-9.7357,-9.7361,-9.7348,-9.7368,-9.7424,-9.7344,-9.7343,-9.7361,-9.7481,-9.75,-9.7511,-9.741,-9.7412,-9.7413,-9.7482,0,-9.7149,-9.717,-9.7193,-9.7205,-9.7215,-9.7242,-9.7231,-9.7243,-9.7231,-9.7225,-9.7255,-9.7252,-9.7263,-9.727,-9.7256,-9.7306,-9.7296,-9.7274,-9.724,-9.7297,-9.732,-9.7329,-9.7208,-9.7207,-9.7206,-9.7205,0,0,-9.7078,-9.7108,-9.7093,-9.7118,-9.7126,-9.7099,-9.7129,-9.7132,-9.7139,-9.7144,-9.7126,-9.7155,-9.7152,-9.7189,-9.7206,-9.7209,-9.7217,-9.7196,-9.7269,-9.7277,-9.7283,-9.7308,-9.7317,-9.7203,-9.7203,-9.7203,-9.7202,0,-9.7046,-9.7047,-9.7077,-9.7081,-9.7086,-9.7078,-9.7085,-9.7084,-9.7081,-9.7108,-9.7084,-9.7099,-9.712,-9.7122,-9.7126,-9.7192,-9.7171,-9.7195,-9.7237,-9.726,-9.7269,-9.7276,-9.7302,-9.7311,-9.72,-9.72,-9.72,0,-9.6987,-9.6987,-9.6999,-9.7014,-9.7016,-9.7035,-9.6998,-9.7019,-9.7033,-9.6998,-9.7025,-9.7021,-9.7021,-9.7055,-9.707,-9.7053,-9.7131,-9.7101,-9.7107,-9.7108,-9.713,-9.714,-9.7149,-9.703,-9.7029,-9.7029,0,0,-9.696,-9.6979,-9.6973,-9.7006,-9.7009,-9.6997,-9.7005,-9.6993,-9.6995,-9.6995,-9.6989,-9.6991,-9.7003,-9.7011,-9.7022,-9.7061,-9.706,-9.7081,-9.7089,-9.7096,-9.7101,-9.7124,-9.7134,-9.7027,-9.7027,-9.7027,0,0,-9.6947,-9.6943,-9.693,-9.6966,-9.6971,-9.6965,-9.6985,-9.6968,-9.6976,-9.6971,-9.6949,-9.6948,-9.6979,-9.6975,-9.6951,-9.7009,-9.6976,-9.6981,-9.7011,-9.7021,-9.7029,-9.7029,-9.691,0,0,0,0,0,-9.6908,-9.6944,-9.6932,-9.6936,-9.6952,-9.6972,-9.6974,-9.6957,-9.6936,-9.6952,-9.6945,-9.6921,-9.6958,-9.6936,-9.694,-9.6966,-9.7002,-9.7006,-9.701,-9.7058,-9.7069,-9.7077,0,0,0,0,0,0,-9.6909,-9.6915,-9.6931,-9.6928,-9.6931,-9.697,-9.693,-9.6927,-9.6933,-9.6929,-9.6923,-9.6921,-9.6905,-9.6933,-9.6937,-9.6962,-9.6909,-9.7003,-9.7007,-9.7011,-9.7062,-9.707,-9.7078,0,0,0,0,0,-9.691,-9.6915,-9.6944,-9.6927,-9.693,-9.6917,-9.6929,-9.6925,-9.693,-9.6917,-9.6914,-9.6917,-9.6906,-9.6908,-9.6935,-9.6961,-9.6906,-9.6908,-9.7006,-9.7009,-9.7012,-9.7066,0,0,0,0,0,0,-9.6911,-9.6911,-9.6944,-9.6944,-9.6912,-9.6914,-9.6914,-9.6924,-9.6917,-9.6915,-9.691,-9.6906,-9.6908,-9.6909,-9.691,-9.6962,-9.6904,-9.6906,-9.6906,-9.7008,-9.701,-9.7013,0,0,0,0,0,0,-9.6909,-9.6911,-9.6944,-9.6926,-9.6924,-9.6912,-9.6912,-9.6931,-9.6917,-9.691,-9.6907,-9.6908,-9.6905,-9.6909,-9.691,-9.6941,-9.6903,-9.6904,-9.6905,-9.6905,-9.701,-9.7012,0,0,0,0,0,0,-9.6909,-9.6912,-9.6926,-9.6924,-9.6922,-9.6923,-9.6928,-9.6944,-9.6905,-9.691,-9.6901,-9.6899,-9.6906,-9.6907,-9.6911,-9.6941,-9.6941,-9.6903,-9.6904,-9.6904,-9.6905,0,0,0,0,0,0,0,-9.691,-9.6898,-9.6943,-9.6923,-9.6921,-9.6946,-9.6946,-9.6946,-9.6904,-9.6903,-9.6901,-9.6899,-9.6896,-9.6897,-9.6898,-9.6941,0,0,-9.6903,-9.6903,0,0,0,0,0,0,0,0,-9.6897,-9.6898,-9.6943,-9.6943,-9.6943,-9.6946,-9.6946,-9.6946,-9.6904,-9.6903,-9.6901,-9.69,-9.6896,-9.6897,-9.6898,0,0,0,0,0,0,0,0,0,0,0,0,0,0,0,-9.6943,-9.6943,0,-9.6946,-9.6946,-9.6946,-9.6904,-9.6903,-9.6902,-9.6901,-9.6896,-9.6897,-9.6898,0,0,0,0,0,0,0,0,0,0,0,0,0,0,0,0,0,0,0,0,0,0,0,0,0,0,0,0,0,0,0,0,0,0,0,0,0,0,0,0,0,0,0,0,0,0,0,0,0,0,0,0,0,0,0,0,0,0,0,0,0,0,0,0,0,0,0,0,0]}]]]